Ionia, MI

9:36 PM EDT on June 25, 2017 (GMT -0400)
Ionia

Weather History for KY70 - February, 2013

Change the Weather History Date:

Saturday, February 9, 2013

  Actual Average (KGRR) Record (KGRR)
Temperature  
Mean Temperature 17 °F -  
Max Temperature 32 °F 30 °F 55 °F (1925)
Min Temperature 2 °F 12 °F -16 °F (1934)
Degree Days  
Heating Degree Days 48    
Moisture  
Dew Point 9 °F    
Average Humidity 72    
Maximum Humidity 85    
Minimum Humidity 55    
Precipitation  
Precipitation 0.00 in - - ()
Sea Level Pressure  
Sea Level Pressure 30.33 in    
Wind  
Wind Speed 2 mph (SE)    
Max Wind Speed 10 mph    
Max Gust Speed -    
Visibility 6 miles    
Events Snow    
Averages and records for this station are not official NWS values.
T = Trace of Precipitation, MM = Missing Value Source: NWS Daily Summary

Daily Weather History Graph

Daily Weather History Graph

Search for Another Location

Airport or City:

Trip Planner

Search our weather history database for the weather conditions in past years. The results will help you decide how hot, cold, wet, or windy it might be!

Date:

Astronomy

Feb. 09, 2013 Rise Set
Actual Time 7:45 AM EST 6:04 PM EST
Civil Twilight 7:15 AM EST 6:33 PM EST
Nautical Twilight 6:42 AM EST 7:07 PM EST
Astronomical Twilight 6:09 AM EST 7:40 PM EST
Moon 6:56 AM EST (2/9) 5:46 PM EST (2/9)
Length of Visible Light 11h 17m
Length of Day
10h 18m
Waning Crescent, 0% of the Moon is Illuminated
Feb 9
Waning Crescent
Feb 10
New
Feb 17
First Quarter
Feb 25
Full
Mar 4
Last Quarter

Hourly Weather History & Observations

Time (EST) Temp. Windchill Dew Point Humidity Pressure Visibility Wind Dir Wind Speed Gust Speed Precip Events Conditions
12:14 AM 19.9 °F - 15.1 °F 81% 30.35 in 10.0 mi Calm Calm - N/A   Clear
12:33 AM 15.8 °F - 11.5 °F 83% 30.35 in 10.0 mi Calm Calm - N/A   Clear
12:54 AM 14.7 °F - 10.0 °F 82% 30.35 in 4.0 mi Calm Calm - N/A   Haze
1:13 AM 12.9 °F - 8.2 °F 82% 30.36 in 2.0 mi Calm Calm - N/A   Haze
1:34 AM 12.6 °F - 7.9 °F 82% 30.35 in 1.8 mi Calm Calm - N/A   Mist
1:53 AM 11.1 °F - 6.1 °F 80% 30.36 in 4.0 mi Calm Calm - N/A   Haze
2:14 AM 10.8 °F - 5.7 °F 80% 30.36 in 0.5 mi Calm Calm - N/A   Haze
2:33 AM 8.1 °F - 1.9 °F 76% 30.36 in 0.5 mi Calm Calm - N/A   Haze
2:54 AM 9.5 °F - 4.1 °F 79% 30.37 in 3.0 mi Calm Calm - N/A   Haze
3:13 AM 8.1 °F - 2.3 °F 77% 30.36 in 0.5 mi Calm Calm - N/A   Haze
3:34 AM 7.0 °F - 1.4 °F 78% 30.36 in 0.2 mi Calm Calm - N/A   Haze
3:53 AM 5.9 °F - -0.4 °F 75% 30.37 in 0.2 mi Calm Calm - N/A   Haze
4:14 AM 4.6 °F - -1.8 °F 75% 30.36 in 0.2 mi Calm Calm - N/A   Haze
4:33 AM 4.8 °F - -1.3 °F 76% 30.37 in 0.5 mi Calm Calm - N/A   Haze
4:54 AM 5.0 °F - -0.9 °F 76% 30.37 in 0.2 mi Calm Calm - N/A   Haze
5:14 AM 4.1 °F - -2.2 °F 75% 30.37 in 0.2 mi Calm Calm - N/A   Haze
5:33 AM 3.4 °F - -2.9 °F 75% 30.38 in 0.2 mi Calm Calm - N/A   Haze
5:54 AM 5.7 °F - -0.6 °F 75% 30.39 in 0.2 mi Calm Calm - N/A   Haze
6:13 AM 5.0 °F - -1.5 °F 75% 30.38 in 0.2 mi Calm Calm - N/A   Haze
6:33 AM 3.7 °F - -2.7 °F 74% 30.38 in 0.2 mi Calm Calm - N/A   Haze
6:54 AM 3.2 °F - -3.5 °F 74% 30.39 in 0.2 mi Calm Calm - N/A   Haze
7:13 AM 3.2 °F - -3.5 °F 74% 30.39 in 0.2 mi Calm Calm - N/A   Haze
7:34 AM 2.3 °F - -4.2 °F 74% 30.39 in 0.2 mi Calm Calm - N/A   Haze
7:53 AM 2.1 °F -5.4 °F -4.4 °F 74% 30.39 in 0.2 mi SE 3.5 mph - N/A   Haze
8:14 AM 2.3 °F - -4.2 °F 74% 30.39 in 1.0 mi Calm Calm - N/A   Haze
8:33 AM 2.3 °F - -4.2 °F 74% 30.40 in 0.8 mi Calm Calm - N/A   Haze
8:54 AM 3.4 °F - -3.1 °F 74% 30.40 in 0.2 mi Calm Calm - N/A   Haze
9:13 AM 4.1 °F - -2.2 °F 75% 30.40 in 0.2 mi Calm Calm - N/A   Haze
9:34 AM 6.6 °F - 0.5 °F 76% 30.40 in 3.0 mi Calm Calm - N/A   Haze
9:54 AM 7.3 °F - 0.9 °F 75% 30.40 in 4.0 mi Calm Calm - N/A   Haze
10:14 AM 9.3 °F - 3.4 °F 77% 30.40 in 1.8 mi Calm Calm - N/A Snow Light Snow
10:33 AM 11.5 °F - 5.7 °F 78% 30.40 in 2.5 mi Calm Calm - N/A Snow Light Snow
10:54 AM 13.1 °F 7.1 °F 7.7 °F 79% 30.40 in 5.0 mi SSE 3.5 mph - N/A   Haze
11:13 AM 14.9 °F 7.5 °F 9.5 °F 79% 30.40 in 5.0 mi SSE 4.6 mph - N/A   Haze
11:34 AM 16.5 °F 11.0 °F 11.5 °F 81% 30.40 in 5.0 mi SSE 3.5 mph - N/A   Haze
11:53 AM 18.5 °F 13.3 °F 13.8 °F 82% 30.39 in 7.0 mi SSE 3.5 mph - N/A   Clear
12:14 PM 20.7 °F 15.8 °F 16.5 °F 84% 30.38 in 7.0 mi SSE 3.5 mph - N/A   Clear
12:34 PM 22.8 °F 15.5 °F 18.7 °F 84% 30.37 in 10.0 mi SSE 5.8 mph - N/A   Clear
12:54 PM 23.9 °F 16.8 °F 20.1 °F 85% 30.36 in 10.0 mi SSE 5.8 mph - N/A   Clear
1:13 PM 25.2 °F 18.3 °F 21.2 °F 85% 30.35 in 10.0 mi SSE 5.8 mph - N/A   Clear
1:34 PM 26.4 °F 18.9 °F 22.1 °F 84% 30.34 in 10.0 mi SE 6.9 mph - N/A   Clear
1:53 PM 27.1 °F 18.9 °F 22.1 °F 81% 30.32 in 10.0 mi SE 8.1 mph - N/A   Clear
2:14 PM 28.2 °F 21.0 °F 21.7 °F 77% 30.32 in 10.0 mi SSE 6.9 mph - N/A   Clear
2:33 PM 29.3 °F 22.3 °F 21.2 °F 72% 30.31 in 10.0 mi SSE 6.9 mph - N/A   Clear
2:54 PM 30.6 °F 22.4 °F 20.7 °F 67% 30.30 in 10.0 mi SE 9.2 mph - N/A   Clear
3:13 PM 31.5 °F 24.9 °F 18.5 °F 59% 30.29 in 10.0 mi SE 6.9 mph - N/A   Clear
3:53 PM 32.0 °F 25.6 °F 18.0 °F 56% 30.28 in 10.0 mi SE 6.9 mph - N/A   Clear
4:14 PM 32.0 °F 24.2 °F 17.6 °F 55% 30.28 in 10.0 mi SSE 9.2 mph - N/A   Clear
4:33 PM 32.0 °F 23.6 °F 17.2 °F 55% 30.28 in 10.0 mi SSE 10.4 mph - N/A   Clear
4:54 PM 31.3 °F 22.7 °F 16.7 °F 55% 30.27 in 10.0 mi SSE 10.4 mph - N/A   Clear
5:13 PM 30.7 °F 22.0 °F 16.3 °F 55% 30.27 in 10.0 mi SSE 10.4 mph - N/A   Clear
5:34 PM 29.8 °F 21.5 °F 15.6 °F 56% 30.26 in 10.0 mi SSE 9.2 mph - N/A   Clear
5:53 PM 28.0 °F 18.6 °F 14.7 °F 57% 30.26 in 10.0 mi SSE 10.4 mph - N/A   Clear
6:14 PM 27.5 °F 18.6 °F 14.5 °F 58% 30.26 in 10.0 mi SSE 9.2 mph - N/A   Clear
6:33 PM 27.0 °F 17.3 °F 14.0 °F 58% 30.25 in 10.0 mi SSE 10.4 mph - N/A   Clear
6:54 PM 28.2 °F 18.9 °F 14.7 °F 57% 30.25 in 10.0 mi SSE 10.4 mph - N/A   Clear
7:13 PM 27.0 °F 18.7 °F 14.2 °F 59% 30.25 in 10.0 mi SSE 8.1 mph - N/A   Clear
7:34 PM 27.5 °F 19.3 °F 15.4 °F 61% 30.24 in 10.0 mi ESE 8.1 mph - N/A   Clear
7:53 PM 27.3 °F 19.9 °F 15.1 °F 60% 30.24 in 10.0 mi SE 6.9 mph - N/A   Clear
8:33 PM 24.4 °F 16.5 °F 14.0 °F 65% 30.24 in 10.0 mi SE 6.9 mph - N/A   Clear
8:54 PM 25.2 °F 18.3 °F 14.5 °F 64% 30.24 in 10.0 mi SE 5.8 mph - N/A   Clear
9:13 PM 24.4 °F 16.5 °F 14.4 °F 66% 30.23 in 10.0 mi ESE 6.9 mph - N/A   Clear
9:34 PM 23.4 °F 15.2 °F 13.5 °F 66% 30.23 in 10.0 mi SE 6.9 mph - N/A   Clear
9:53 PM 21.2 °F 10.9 °F 12.2 °F 68% 30.22 in 10.0 mi SSE 9.2 mph - N/A   Clear
10:14 PM 22.1 °F 13.7 °F 13.8 °F 70% 30.21 in 10.0 mi SE 6.9 mph - N/A   Clear
10:33 PM 22.3 °F 14.9 °F 14.2 °F 71% 30.21 in 10.0 mi SE 5.8 mph - N/A   Clear
10:54 PM 22.6 °F 18.0 °F 15.1 °F 73% 30.21 in 10.0 mi SSE 3.5 mph - N/A   Clear
11:13 PM 22.5 °F - 15.1 °F 73% 30.21 in 10.0 mi Calm Calm - N/A   Clear
11:34 PM 21.0 °F 16.2 °F 14.5 °F 76% 30.20 in 10.0 mi SE 3.5 mph - N/A   Scattered Clouds
11:53 PM 21.2 °F 16.4 °F 15.3 °F 78% 30.20 in 10.0 mi ESE 3.5 mph - N/A   Clear